Location: Newark
(49.8500°N, 20.8167°E)
Time: 04:08:34
(UTC+00:00)

Envisat - Visible Passes

Search period start: 19 October 2019 00:00
Search period end: 29 October 2019 00:00
Orbit: 764 x 766 km, 98.1° (Epoch: 18 October)

Date Brightness Start Highest point End Pass type
(mag) Time Alt. Az. Time Alt. Az. Time Alt. Az.
19 Oct 3.0 16:29:28 10° SSE 16:34:33 88° E 16:39:41 10° NNW visible
19 Oct 6.0 18:11:34 10° WSW 18:14:18 14° W 18:17:03 10° NW visible
20 Oct 5.1 17:32:43 10° SSW 17:37:06 29° W 17:41:31 10° NNW visible
21 Oct 6.7 03:59:55 10° ENE 04:01:09 11° E 04:02:23 10° E visible
21 Oct 3.7 16:55:07 10° S 17:00:06 57° W 17:05:09 10° NNW visible
22 Oct 3.0 16:18:15 10° SSE 16:23:18 73° ENE 16:28:24 10° N visible
22 Oct 5.8 17:59:29 10° SW 18:02:53 18° W 18:06:19 10° NW visible
23 Oct 6.1 04:23:33 10° NE 04:27:02 18° E 04:30:30 10° SE visible
23 Oct 4.7 17:21:07 10° SSW 17:25:45 35° W 17:30:25 10° NNW visible
24 Oct 3.3 16:43:45 10° S 16:48:48 71° WSW 16:53:55 10° NNW visible
24 Oct 6.3 18:27:49 10° W 18:28:47 10° W 18:29:46 10° WNW visible
25 Oct 3.0 16:07:05 10° SSE 16:12:04 59° ENE 16:17:05 10° N visible
25 Oct 5.5 17:47:36 10° SW 17:51:29 22° W 17:55:24 10° NW visible
26 Oct 6.2 04:12:47 10° NE 04:15:37 15° E 04:18:27 10° ESE visible
26 Oct 4.3 17:09:35 10° S 17:14:25 43° W 17:19:17 10° NNW visible
27 Oct 3.0 16:32:27 10° SSE 16:37:32 86° WSW 16:42:39 10° NNW visible
27 Oct 6.1 18:14:55 10° WSW 18:17:20 13° W 18:19:46 10° WNW visible
28 Oct 5.8 04:37:20 10° NE 04:41:26 24° E 04:45:32 10° SE visible
28 Oct 3.2 15:55:59 10° SE 16:00:51 49° ENE 16:05:44 10° N visible
28 Oct 5.1 17:35:51 10° SSW 17:40:07 27° W 17:44:24 10° NW visible
